Dewpoint
31 31 31 31 31 31 31 31 31 32 32 33 33 34 36 38 40 42 43 43 44 44 44 44 45 45 46 46 46 46 45 45 44 44 43 43 44 44 44 44 44 44 44 43 44 44 44 44 45 45 45 45 45 45 45 45 45 45 45 45 45 44 44 44 44 44 44 44 44
30 30 30 30 30 30 31 31 31 32 33 34 35 37 38 41 41 42 43 43 43 44 44 44 45 45 45 46 46 45 45 44 44 44 43 43 43 43 43 43 43 43 43 43 44 44 44 44 45 45 45 45 45 45 45 45 45 44 44 44 45 45 45 45 45 45 45 45 45
30 30 30 29 30 30 31 31 32 33 34 36 38 39 40 41 42 42 42 43 43 44 44 44 45 45 45 45 45 45 45 44 44 43 43 43 43 43 43 43 43 43 43 43 43 44 44 44 44 44 44 44 44 44 43 43 43 43 44 44 45 45 45 44 44 44 45 45 44
29 29 30 30 30 30 31 32 33 35 37 38 39 40 41 41 41 42 42 42 43 43 44 44 45 45 45 45 45 45 44 43 43 43 43 43 43 42 42 42 42 42 43 43 43 43 43 44 44 44 43 43 43 42 40 40 41 42 43 43 43 43 42 42 42 42 42 42 41
29 29 30 30 31 31 33 34 35 36 38 39 39 40 40 41 41 41 41 41 42 43 43 44 45 45 45 44 44 44 43 43 42 42 42 42 42 42 42 42 42 42 42 42 42 43 43 43 43 43 42 42 41 39 38 38 39 40 40 41 40 40 39 38 39 39 38 38 38
28 29 30 31 31 32 34 35 36 38 38 39 40 40 40 40 41 41 41 41 42 42 43 43 44 44 44 44 44 43 43 42 42 42 42 41 41 42 41 41 41 41 41 41 41 42 42 42 41 40 40 40 39 38 38 38 38 38 38 38 38 38 37 37 37 38 37 36 36
28 29 30 31 32 33 34 36 37 38 38 39 39 40 40 40 41 41 41 41 42 42 42 42 43 44 45 44 44 43 42 41 41 41 41 41 41 41 41 41 41 41 41 41 40 40 40 40 39 38 38 38 38 38 37 37 37 37 36 36 37 37 37 36 37 37 36 36 35
30 31 31 32 32 33 34 36 37 38 38 38 39 39 40 40 40 40 40 41 41 41 41 42 43 44 45 45 43 43 42 41 41 41 41 40 40 40 40 40 39 39 39 40 39 39 39 39 38 38 38 38 37 37 36 36 36 36 36 35 36 36 36 36 36 36 36 35 35
31 32 33 33 33 34 34 36 37 37 38 38 38 39 39 39 39 39 40 40 40 40 40 42 43 43 43 43 42 41 41 40 40 40 40 39 39 39 39 39 38 38 38 38 38 38 38 37 37 37 37 37 36 36 35 35 34 34 35 35 35 35 35 35 35 35 35 35 35
32 33 33 34 34 34 35 36 36 37 37 38 38 38 39 38 38 39 39 39 39 39 40 41 41 41 41 40 40 40 40 41 40 40 39 38 38 38 38 38 38 38 38 38 38 37 36 36 36 36 36 36 35 34 34 34 33 33 33 34 34 34 34 34 34 34 34 34 34
32 33 34 34 34 34 35 36 36 36 37 37 38 38 38 38 38 38 38 38 38 39 39 40 40 40 39 38 38 39 40 41 40 40 39 38 38 38 38 38 37 37 37 37 37 36 36 35 34 34 34 34 34 33 33 32 31 31 31 32 32 32 32 33 34 34 34 34 34
32 32 33 34 34 35 35 35 36 36 37 37 38 38 38 38 38 37 37 38 38 38 39 40 40 39 39 38 38 39 40 40 40 39 38 38 38 38 38 37 37 36 36 36 36 36 35 35 34 34 34 33 33 32 32 31 31 31 31 30 31 31 31 31 33 33 34 34 34
31 31 32 33 34 34 35 35 36 36 37 37 38 38 38 38 37 37 37 37 37 38 38 39 39 39 39 39 39 39 39 39 38 38 37 37 37 36 36 36 36 35 35 35 35 35 34 34 34 33 32 32 32 32 32 31 31 31 30 30 30 30 30 30 31 32 32 33 33
30 30 31 31 32 33 34 35 35 36 37 38 38 38 37 37 37 36 36 37 37 37 38 38 38 39 39 38 38 38 38 38 37 37 36 35 35 35 34 34 34 34 34 34 34 34 33 33 32 31 31 31 31 31 31 31 31 30 30 29 29 29 29 29 30 30 30 30 30
29 29 29 30 31 32 33 34 35 36 37 38 38 37 37 37 36 36 36 36 36 36 37 37 37 37 38 37 37 36 36 36 35 35 34 34 34 34 34 34 34 34 34 34 33 33 33 32 31 31 31 30 30 30 30 30 30 29 29 29 28 28 28 27 28 28 28 28 28
29 28 28 29 29 30 32 33 34 36 37 37 37 37 36 36 36 36 36 35 36 36 36 35 35 36 36 35 35 35 34 34 34 33 33 33 33 33 33 33 33 33 33 33 32 32 32 31 30 30 30 30 29 29 29 29 29 28 28 28 27 26 26 25 25 25 25 25 24
28 28 28 28 28 29 30 32 34 35 36 36 36 36 36 36 36 35 35 34 35 34 34 34 34 34 34 34 33 33 32 32 31 31 31 31 31 32 32 33 33 33 32 31 31 31 30 30 30 30 29 29 29 29 28 28 28 27 27 26 25 25 24 22 22 21 21 21 21
28 28 28 28 28 28 29 31 33 34 35 35 35 35 35 35 35 34 34 34 34 34 33 33 33 32 32 32 31 31 30 30 29 29 29 30 31 31 31 32 32 32 32 31 31 30 29 29 30 29 29 29 28 28 28 27 27 26 25 24 23 22 22 21 21 21 20 20 21
28 28 28 28 28 28 29 30 32 33 34 34 34 34 34 34 34 34 34 33 33 33 32 32 31 31 30 30 30 29 29 29 28 28 29 29 30 30 30 30 31 31 32 31 30 29 29 29 29 29 28 28 28 28 27 26 25 25 23 23 22 21 21 20 20 20 20 19 20
28 28 28 28 28 29 29 31 32 32 33 34 33 33 33 33 33 33 32 32 32 32 31 31 30 30 29 29 29 29 29 29 28 28 29 29 29 29 30 30 30 30 30 29 29 29 29 28 28 28 27 27 27 26 26 25 24 23 22 22 21 20 20 19 18 18 18 18 18
28 28 28 29 29 29 30 32 32 32 33 33 32 32 32 32 32 31 31 31 31 31 30 30 29 29 29 29 29 29 29 29 29 29 29 30 30 30 30 29 29 29 29 28 28 28 27 27 27 27 26 26 25 25 24 23 22 21 20 20 19 18 18 17 17 17 18 18 19
28 28 29 29 29 30 31 32 32 32 32 32 32 31 31 31 31 31 31 31 30 30 29 29 29 29 30 30 29 29 29 29 30 31 31 31 32 31 30 29 28 27 27 26 25 25 25 26 26 26 25 25 24 23 23 22 20 19 19 18 18 18 17 17 17 18 18 19 19
28 28 29 29 29 30 31 32 32 32 32 31 31 31 30 30 30 30 30 30 29 29 29 29 29 30 31 31 30 30 30 30 31 32 33 33 32 31 30 29 28 26 25 25 25 24 24 24 25 24 23 22 21 21 21 21 20 19 18 17 17 17 17 17 18 18 18 19 20
28 29 29 30 30 31 31 32 32 31 31 31 30 30 30 29 29 29 29 29 28 28 27 28 29 30 31 32 32 31 31 31 31 32 33 33 33 31 30 29 27 26 25 26 27 27 26 24 23 22 21 20 20 20 20 20 19 18 18 17 17 17 17 17 18 18 19 19 20
28 29 29 30 30 30 31 31 30 30 30 30 30 29 29 29 29 28 28 28 27 27 27 27 28 30 32 33 33 32 32 32 32 32 32 33 32 31 30 29 27 26 26 28 31 33 33 29 26 23 21 20 20 20 20 19 19 18 18 18 18 17 17 17 18 18 19 19 19
28 29 29 30 30 30 30 30 29 29 29 29 29 29 29 28 28 27 27 26 27 27 27 27 28 30 32 32 32 32 32 32 32 31 32 32 31 30 29 29 27 26 27 30 33 35 36 34 32 27 22 19 19 19 19 18 18 19 19 18 18 17 17 17 17 18 18 19 19
28 29 29 29 29 29 29 29 29 29 29 29 28 28 28 27 27 27 26 26 26 26 27 27 28 29 30 31 31 31 31 31 31 31 30 30 30 29 28 27 25 26 28 31 34 35 36 36 34 31 26 20 19 18 18 18 18 18 18 17 17 17 17 17 17 17 18 19 18
28 28 28 29 29 29 29 28 28 28 28 28 27 27 27 27 26 26 26 26 26 26 26 27 28 29 30 30 30 29 29 30 30 30 30 29 29 28 27 25 24 25 27 31 34 35 36 36 35 33 29 23 19 18 18 18 17 17 17 16 17 17 17 17 17 17 17 17 17
27 27 27 28 28 28 28 27 27 27 27 27 27 27 27 27 26 26 26 25 25 26 27 28 29 29 30 29 29 29 29 29 29 29 29 28 27 26 25 24 22 24 27 30 32 34 36 36 35 33 30 27 21 18 17 17 17 16 16 17 16 16 16 17 17 16 16 16 16
27 27 27 27 28 28 27 27 27 27 27 27 27 27 26 26 26 26 25 25 25 26 27 28 28 28 28 29 28 28 28 28 28 28 27 26 25 25 24 23 22 23 26 29 30 33 35 36 34 33 30 28 23 19 17 17 16 16 16 17 16 16 16 16 16 16 16 16 16
27 26 26 26 27 27 27 26 26 27 27 27 26 26 26 26 25 25 25 25 26 26 26 27 26 26 26 27 27 27 27 27 26 26 25 25 24 23 22 21 20 22 25 28 30 32 34 35 34 33 30 27 23 20 17 17 16 16 16 16 16 16 16 16 16 15 15 15 15
26 25 25 25 26 26 26 26 26 26 26 25 25 25 25 25 25 25 25 25 25 26 26 26 25 25 25 25 25 25 25 25 25 25 24 23 22 21 21 20 20 21 25 29 31 32 34 34 34 33 30 27 23 19 16 16 16 17 17 16 16 16 16 16 16 16 15 15 15
25 25 25 25 25 26 26 26 26 25 25 25 25 25 25 25 25 25 25 25 25 25 25 25 25 24 24 24 25 25 25 24 24 23 23 22 21 20 20 20 20 23 27 30 32 32 33 33 33 33 31 28 22 17 15 16 16 17 17 17 17 17 17 16 16 16 16 16 16
25 25 25 25 25 25 25 25 25 25 25 25 25 25 25 25 25 25 25 25 25 25 25 25 24 24 24 24 24 24 24 23 23 22 21 20 19 19 19 19 19 24 29 31 31 32 32 32 33 32 29 26 20 17 16 16 16 16 16 17 17 17 17 17 17 17 16 16 16
25 25 25 25 25 25 25 24 24 24 24 24 25 25 25 25 25 25 25 25 25 25 24 24 24 23 23 24 24 23 22 22 22 22 20 19 18 18 19 19 19 24 29 31 31 31 31 32 32 31 28 23 18 16 16 16 15 15 16 17 17 17 17 17 17 17 16 16 16
25 25 25 25 25 25 25 24 24 24 24 24 24 24 24 24 25 25 25 25 25 24 23 23 23 23 22 22 22 21 21 21 22 21 20 19 18 17 18 18 19 23 28 29 29 30 30 31 30 29 25 20 17 16 15 14 14 14 15 16 16 16 16 16 16 16 16 15 15
24 24 25 25 25 25 24 24 24 24 24 24 24 24 24 24 24 25 25 24 23 23 22 22 22 22 22 22 21 21 20 21 21 21 20 20 18 17 17 18 19 22 26 28 29 29 30 29 28 26 23 19 16 15 14 13 13 13 14 15 14 15 15 14 14 14 14 13 15
24 24 24 25 25 24 24 24 24 23 23 23 24 24 24 24 24 24 24 23 22 22 21 21 21 21 21 21 20 20 20 21 20 20 20 20 18 17 17 18 19 21 24 27 28 29 29 29 27 25 22 17 16 14 13 12 12 12 13 13 13 13 13 12 12 12 12 12 16
23 23 23 24 24 24 24 24 23 23 23 23 23 24 24 24 24 24 23 23 22 22 21 21 21 21 21 20 20 20 21 22 21 20 20 20 19 19 19 18 19 21 24 27 28 28 28 28 27 25 22 17 14 13 12 12 12 12 12 12 12 12 12 11 11 12 12 12 18
23 23 23 24 24 24 24 24 23 23 23 23 23 24 24 24 24 24 23 22 22 21 21 21 21 21 20 20 20 20 21 22 21 21 21 20 20 22 22 18 19 20 23 27 27 27 27 27 27 26 23 17 14 13 13 13 13 12 12 12 11 12 12 12 12 12 12 12 16
23 23 23 24 24 24 24 23 23 23 23 24 24 24 24 24 23 23 23 22 22 21 21 21 20 20 20 20 20 21 21 21 22 22 21 20 21 22 23 20 20 20 22 25 26 26 25 26 26 26 25 20 16 14 13 14 13 13 12 12 12 12 13 13 13 13 13 12 13